This demonstration page uses our WeatherBlox Daily Observations layout. Learn more.

36.17497, -115.13722

Hourly Observations for July 23, 2016

Temp ( °F °C ) Dew Point ( °F °C ) Humidity (%) Winds ( mph kmh ) Pressure ( in mb ) Visibility ( mi km ) Precip ( " mm )
12:53 am 00:53 Clear 92 33.3 35 1.7 13 13 ENE 3 6 29.68 1005 10 16.09344 0 0
1:53 am 01:53 Clear 95 35 31 -0.6 10 10 ENE 5 7 29.68 1005 10 16.09344 0 0
2:53 am 02:53 Clear 91 33 30 -1 11 11 NE 5 7 29.68 1005 10 16.09344 0 0
3:53 am 03:53 Clear 87 30.6 33 0.6 14 14 Calm 29.71 1006 10 16.09344 0 0
4:53 am 04:53 Clear 85 29.4 33 0.6 15 15 NNW 6 9 29.74 1007 10 16.09344 0 0
5:53 am 05:53 Sunny 84 28.9 34 1.1 17 17 NNW 7 11 29.74 1007 10 16.09344 0 0
6:53 am 06:53 Sunny 86 30 37 2.8 18 18 NW 3 6 29.74 1007 10 16.09344 0 0
7:53 am 07:53 Sunny 91 32.8 34 1.1 13 13 NNW 7 11 29.74 1007 10 16.09344 0 0
8:53 am 08:53 Sunny 95 35 34 1.1 12 12 N 6 9 29.74 1007 10 16.09344 0 0
9:53 am 09:53 Sunny 98 36.7 34 1.1 11 11 E 3 6 29.71 1006 10 16.09344 0 0
10:53 am 10:53 Sunny 101 38.3 33 0.6 9 9 Calm 29.71 1006 10 16.09344 0 0
11:53 am 11:53 Sunny 104 40 32 0 8 8 SSE 8 13 29.65 1004 10 16.09344 0 0
12:53 pm 12:53 Sunny 107 41.7 34 1.1 8 8 undefined N/A 29.62 1003 10 16.09344 0 0
1:53 pm 13:53 Sunny 109 42.8 34 1.1 7 7 N 5 7 29.59 1002 10 16.09344 0 0
2:53 pm 14:53 Sunny 109 43 36 2 8 8 SW 12 19 29.56 1001 10 16.09344 0 0
3:53 pm 15:53 Sunny 110 43.3 32 0 7 7 WSW 9 15 29.5 999 10 16.09344 0 0
4:53 pm 16:53 Sunny 110 43.3 34 1.1 7 7 N 6 9 29.47 998 10 16.09344 0 0
5:53 pm 17:53 Sunny 110 43.3 34 1.1 7 7 SW 15 24 29.47 998 10 16.09344 0 0
6:53 pm 18:53 Sunny 109 42.8 34 1.1 7 7 WSW 14 22 29.47 998 10 16.09344 0 0
7:53 pm 19:53 Sunny 106 41.1 34 1.1 8 8 WSW 10 17 29.5 999 10 16.09344 0 0
8:53 pm 20:53 Clear 103 39.4 34 1.1 9 9 SW 9 15 29.5 999 10 16.09344 0 0
9:53 pm 21:53 Clear 101 38.3 34 1.1 10 10 SSW 12 19 29.56 1001 10 16.09344 0 0
10:53 pm 22:53 Clear 100 37.8 36 2.2 11 11 SW 9 15 29.56 1001 10 16.09344 0 0
11:53 pm 23:53 Clear 97 36.1 36 2.2 12 12 W 9 15 29.59 1002 10 16.09344 0 0

Powered by AerisWeather